Regional Weather Roundup
Issued by NWS Goodland, KS

Home | Current Version | Previous Version | Graphics & Text | Print | Product List | Glossary On
Versions: 1 2 3 4 5 6 7 8 9 10 11 12 13 14 15 16 17 18 19 20 21 22 23 24 25 26 27 28 29 30 31 32 33 34 35 36 37 38 39 40 41 42 43 44 45 46 47 48 49 50
000
ASUS43 KGLD 201208
RWRGLD

GOODLAND FORECAST AREA HOURLY WEATHER ROUNDUP
NATIONAL WEATHER SERVICE GOODLAND KS
600 AM MDT WED SEP 20 2017

...OFFICIAL OBSERVATIONS...

CITY           SKY/WX    TMP DP  RH WIND       PRES   REMARKS
GOODLAND KS    CLOUDY    41  34  76 NW8       29.95R
HILL CITY KS   CLEAR     53  37  54 NW9       29.86R
IMPERIAL NEB   CLOUDY    41  34  76 MISG      29.94R
MCCOOK NEB     CLEAR     43  36  76 NW9       29.90R
AKRON CO       CLOUDY    43  27  53 CALM      29.98R
BURLINGTON CO  CLOUDY    38  31  76 W7        29.98R
LIMON CO       CLOUDY    38  30  73 W7        30.01R
$$

...UNOFFICIAL OBSERVATIONS...

CITY           SKY/WX    TMP DP  RH WIND       PRES   REMARKS
LENORA KS        N/A     48  32  54 MISG        N/A
NORTON KS      CLEAR     48  34  57 W12       29.87R
SHARON SPRINGS   N/A     48  35  61 N7          N/A
TRENTON NEB      N/A     46  32  58 NW6         N/A
KIT CARSON CO    N/A     51  30  44 MISG        N/A
YUMA CO        FAIR      34  30  86 SW6       29.96R
$$



USA.gov is the U.S. government's official web portal to all federal, state and local government web resources and services.